Location: ?????
(55.8833°N, 37.6500°E)
Time: 15:38:34
(UTC+00:00)

STARLINK-59 - Pass Details

Date: 27 February 2020
Orbit: 529 x 530 km, 53.0° (Epoch: 08 April)

Event Time Altitude Azimuth Distance (km) Brightness Sun altitude
Rises 16:14:57 0° 260° (W) 2,671 9.0 -11.5°
Reaches altitude 10° 16:17:11 10° 257° (WSW) 1,782 7.6 -11.8°
Maximum altitude 16:21:09 58° 178° (S) 626 3.8 -12.4°
Enters shadow 16:23:46 20° 105° (ESE) 1,266 4.8 -12.7°
